Home   Weather   Helmstedt   Past weeks

Flag for Germany Past Weather in Helmstedt, Lower Saxony, Germany — Yesterday and Last 2 Weeks

Now
45 °F

Light rain. Mostly cloudy.


Feels Like: 41 °F
Forecast: 33 / 49 °F
Wind: 6 mph from West

Location: Braunschweig Wolfsburg

Current Time: Apr 29, 2017 at 12:07:02 am

Latest Report: Apr 28, 2017 at 10:20 pm


Visibility: N/A

Pressure: 29.95 "Hg

Humidity: 100%

Dew Point: 45 °F

Location of HelmstedtLocation

Past Weather in Helmstedt — Graph

°F

Helmstedt Temperature Yesterday

Maximum temperature yesterday: 55 °F (at 1:50 pm)
Minimum temperature yesterday: 32 °F (at 6:50 am)
Average temperature yesterday: 49 °F

High & Low Weather Summary for the Past Weeks

 TemperatureHumidityPressure
High57 °F (Apr 21, 2:50 pm)100% (Apr 15, 10:50 am)30.60 "Hg (Apr 15, 10:50 am)
Low25 °F (Apr 20, 6:50 am)32% (Apr 26, 3:50 pm)29.62 "Hg (Apr 25, 6:20 am)
Average46 °F67%30.09 "Hg
* Reported Apr 14 10:50 am — Apr 28 10:20 pm, Helmstedt, Weather by CustomWeather, © 2017

Note: Actual official high and low records may vary slightly from our data, if they occured in-between our weather recording intervals... More about our weather records

Advertising

Helmstedt Weather History for the Previous 24 Hours

Scroll right to see more
 ConditionsComfort  
Time TempWeatherWind HumidityBarometerVisibility
10:20 pm
Fri, Apr 28
45 °FLight rain. Mostly cloudy.6 mph100%29.95 "HgN/A
9:50 pm45 °FLight rain. Overcast.7 mph100%29.95 "HgN/A
9:20 pm46 °FOvercast.8 mph87%29.95 "HgN/A
8:50 pm48 °FOvercast.10 mph71%29.92 "HgN/A
8:20 pm48 °FSunny.7 mph58%29.92 "Hg10 mi
7:50 pm50 °FSunny.8 mph58%29.92 "Hg10 mi
7:20 pm52 °FPassing clouds.8 mph54%29.89 "HgN/A
6:20 pm52 °FPassing clouds.8 mph54%29.92 "HgN/A
5:50 pm52 °FPassing clouds.8 mph54%29.92 "HgN/A
5:20 pm54 °FMostly cloudy.7 mph51%29.92 "HgN/A
4:50 pm54 °FBroken clouds.7 mph47%29.89 "HgN/A
4:20 pm54 °FPartly sunny.9 mph47%29.89 "HgN/A
3:50 pm54 °FPartly sunny.10 mph44%29.89 "HgN/A
3:20 pm54 °FPassing clouds.9 mph44%29.89 "HgN/A
2:50 pm54 °FPassing clouds.12 mph41%29.89 "HgN/A
2:20 pm54 °FPassing clouds.9 mph38%29.89 "HgN/A
1:50 pm55 °FScattered clouds.10 mph44%29.89 "HgN/A
12:50 pm54 °FScattered clouds.10 mph44%29.92 "HgN/A
12:20 pm52 °FScattered clouds.13 mph50%29.92 "HgN/A
11:50 am50 °FScattered clouds.9 mph50%29.92 "HgN/A
11:20 am52 °FScattered clouds.7 mph50%29.92 "HgN/A
10:20 am48 °FPassing clouds.7 mph58%29.92 "HgN/A
9:20 am46 °FPassing clouds.6 mph66%29.92 "HgN/A
8:50 am45 °FPassing clouds.7 mph66%29.92 "HgN/A
8:20 am41 °FSunny.2 mph87%29.92 "Hg10 mi
7:50 am39 °FSunny.No wind87%29.92 "Hg10 mi
7:20 am36 °FSunny.No wind100%29.92 "Hg10 mi
6:50 am32 °FSunny.3 mph100%29.92 "Hg10 mi
Weather by CustomWeather, © 2017

See weather overviewHow to use our weather pages